Location: Newark
(41.8083°N, 72.2500°W)
Time: 23:42:13
(UTC+00:00)

Transit 2A - Pass Details

Date: 07 December 2021
Orbit: 591 x 967 km, 66.7° (Epoch: 23 January)

Event Time Altitude Azimuth Distance (km) Brightness Sun altitude
Exits shadow 10:40:35 - 341° (NNW) 3,415 9.0 -14.9°
Reaches altitude 10° 10:43:40 10° 0° (N) 2,714 8.7 -14.3°
Maximum altitude 10:47:05 15° 33° (NNE) 2,375 8.7 -13.7°
Drops below altitude 10° 10:50:28 10° 66° (ENE) 2,680 9.5 -13.1°
Sets 10:54:19 0° 89° (E) 3,577 10.9 -12.4°
